Weather History for Atlantic City, NJ

Change the Weather History Date:

Friday, May 17, 2013

  Actual Average Record
Temperature  
Mean Temperature 64 °F 61 °F  
Max Temperature 77 °F 72 °F 93 °F (1974)
Min Temperature 50 °F 51 °F 34 °F (1967)
Degree Days  
Heating Degree Days 1 5  
Month to date heating degree days 143 122  
Since 1 July heating degree days 4782 4826  
Cooling Degree Days 0 2  
Month to date cooling degree days 10 20  
Year to date cooling degree days 25 29  
Growing Degree Days 14 (Base 50)    
Moisture  
Dew Point 46 °F    
Average Humidity 57    
Maximum Humidity 84    
Minimum Humidity 29    
Precipitation  
Precipitation 0.00 in 0.10 in 1.25 in (1995)
Month to date precipitation 1.77 1.74  
Year to date precipitation 16.63 15.67  
Snow  
Snow 0.00 in 0.00 in 0.00 in (1903)
Month to date snowfall 0.0 0.0  
Since 1 July snowfall 14.6 16.5  
Snow Depth 0.00 in    
Sea Level Pressure  
Sea Level Pressure 30.07 in    
Wind  
Wind Speed 8 mph (NNW)    
Max Wind Speed 17 mph    
Max Gust Speed 23 mph    
Visibility 10 miles    
Events      
T = Trace of Precipitation, MM = Missing Value Source: NWS Daily Summary

Daily Weather History Graph

Daily Weather History Graph

Search for Another Location

Airport:

Trip Planner

Search our weather history database for the weather conditions in past years. The results will help you decide how hot, cold, wet, or windy it might be!

Date:

Astronomy

May. 17, 2013 Rise Set
Actual Time 5:42 AM EDT 8:07 PM EDT
Civil Twilight 5:11 AM EDT 8:38 PM EDT
Nautical Twilight 4:34 AM EDT 9:15 PM EDT
Astronomical Twilight 3:52 AM EDT 9:57 PM EDT
Moon 12:11 PM EDT (5/17) 12:59 AM EDT (5/17)
Length of Visible Light 15h 26m
Length of Day
14h 24m
Waxing Crescent, 45% of the Moon is Illuminated
May 17
Waxing Crescent
May 18
First Quarter
May 25
Full
May 31
Last Quarter
Jun 8
New

Hourly Weather History & Observations

Time (EDT) Temp. Dew Point Humidity Pressure Visibility Wind Dir Wind Speed Gust Speed Precip Events Conditions
12:54 AM 70.0 °F 57.0 °F 63% 29.87 in 10.0 mi WNW 12.7 mph - N/A   Clear
1:54 AM 64.0 °F 57.0 °F 78% 29.89 in 10.0 mi WNW 6.9 mph - N/A   Clear
2:54 AM 61.0 °F 55.0 °F 81% 29.91 in 10.0 mi NNW 5.8 mph - N/A   Clear
3:54 AM 60.1 °F 50.0 °F 69% 29.94 in 10.0 mi NNW 8.1 mph - N/A   Clear
4:54 AM 59.0 °F 45.0 °F 60% 29.96 in 10.0 mi North 3.5 mph - N/A   Clear
5:54 AM 50.0 °F 43.0 °F 77% 29.99 in 10.0 mi NNW 3.5 mph - N/A   Clear
6:54 AM 57.9 °F 46.9 °F 67% 30.03 in 10.0 mi NNW 8.1 mph - N/A   Clear
7:54 AM 64.0 °F 45.0 °F 50% 30.06 in 10.0 mi NNW 6.9 mph - N/A   Clear
8:54 AM 66.0 °F 41.0 °F 40% 30.07 in 10.0 mi North 15.0 mph - N/A   Partly Cloudy
9:54 AM 68.0 °F 42.1 °F 39% 30.08 in 10.0 mi North 13.8 mph - N/A   Clear
10:01 AM 68.0 °F 43.0 °F 40% 30.08 in 10.0 mi North 10.4 mph - N/A   Overcast
10:12 AM 68.0 °F 43.0 °F 40% 30.08 in 6.0 mi North 12.7 mph 23.0 mph N/A   Haze
10:54 AM 70.0 °F 43.0 °F 38% 30.09 in 6.0 mi Variable 4.6 mph 16.1 mph N/A   Haze
11:54 AM 71.1 °F 43.0 °F 36% 30.10 in 6.0 mi WNW 8.1 mph - N/A   Haze
12:54 PM 73.0 °F 42.1 °F 33% 30.09 in 6.0 mi West 9.2 mph - N/A   Haze
1:54 PM 75.0 °F 42.1 °F 31% 30.09 in 10.0 mi NW 13.8 mph 18.4 mph N/A   Clear
2:54 PM 75.9 °F 42.1 °F 30% 30.09 in 10.0 mi NNW 15.0 mph 18.4 mph N/A   Clear
3:54 PM 75.9 °F 41.0 °F 29% 30.09 in 10.0 mi NW 4.6 mph - N/A   Clear
4:54 PM 71.1 °F 44.1 °F 38% 30.10 in 10.0 mi SSE 10.4 mph - N/A   Clear
5:54 PM 68.0 °F 44.1 °F 42% 30.12 in 10.0 mi ESE 11.5 mph - N/A   Clear
6:54 PM 64.0 °F 44.1 °F 48% 30.14 in 10.0 mi ESE 9.2 mph - N/A   Clear
7:54 PM 62.1 °F 45.0 °F 53% 30.15 in 10.0 mi SE 5.8 mph - N/A   Clear
8:54 PM 60.1 °F 45.0 °F 57% 30.18 in 10.0 mi SSE 5.8 mph - N/A   Clear
9:54 PM 59.0 °F 46.0 °F 62% 30.19 in 10.0 mi SE 5.8 mph - N/A   Partly Cloudy
10:54 PM 57.9 °F 45.0 °F 62% 30.20 in 10.0 mi South 5.8 mph - N/A   Clear
11:54 PM 57.9 °F 46.0 °F 65% 30.21 in 10.0 mi SSE 4.6 mph - N/A   Mostly Cloudy